Weather History for Great Falls, MT

Change the Weather History Date:

Monday, November 5, 2012

  Actual Average Record
Temperature  
Mean Temperature 58 °F 38 °F  
Max Temperature 69 °F 48 °F 76 °F (1975)
Min Temperature 46 °F 27 °F -10 °F (2003)
Degree Days  
Heating Degree Days 7 27  
Month to date heating degree days 75 132  
Since 1 July heating degree days 900 1152  
Cooling Degree Days 0 0  
Month to date cooling degree days 0 0  
Year to date cooling degree days 484 298  
Growing Degree Days 7 (Base 50)    
Moisture  
Dew Point 36 °F    
Average Humidity 46    
Maximum Humidity 65    
Minimum Humidity 27    
Precipitation  
Precipitation 0.00 in 0.02 in 1.00 in (1918)
Month to date precipitation T 0.10  
Year to date precipitation 11.16 13.71  
Snow  
Snow 0.00 in 0.20 in 4.50 in (1991)
Month to date snowfall 0.0 1.0  
Since 1 July snowfall 5.1 6.6  
Since 1 September snowfall 5.1 6.3  
Snow Depth 0.00 in    
Sea Level Pressure  
Sea Level Pressure 30.04 in    
Wind  
Wind Speed 19 mph (WSW)    
Max Wind Speed 36 mph    
Max Gust Speed 44 mph    
Visibility 10 miles    
Events      
T = Trace of Precipitation, MM = Missing Value Source: NWS Daily Summary

Daily Weather History Graph

Daily Weather History Graph

Search for Another Location

Airport:

Trip Planner

Search our weather history database for the weather conditions in past years. The results will help you decide how hot, cold, wet, or windy it might be!

Date:

Astronomy

Nov. 05, 2012 Rise Set
Actual Time 7:16 AM MST 5:01 PM MST
Civil Twilight 6:43 AM MST 5:34 PM MST
Nautical Twilight 6:06 AM MST 6:10 PM MST
Astronomical Twilight 5:31 AM MST 6:46 PM MST
Moon 10:43 PM MST (11/5) 12:38 PM MST (11/5)
Length of Visible Light 10h 50m
Length of Day
9h 45m
Waning Gibbous, 62% of the Moon is Illuminated
Nov 5
Waning Gibbous
Nov 6
Last Quarter
Nov 13
New
Nov 20
First Quarter
Nov 28
Full

Hourly Weather History & Observations

Time (MST) Temp. Dew Point Humidity Pressure Visibility Wind Dir Wind Speed Gust Speed Precip Events Conditions
12:53 AM 55.9 °F 39.9 °F 55% 30.12 in 10.0 mi SSW 16.1 mph - N/A   Mostly Cloudy
1:53 AM 55.9 °F 41.0 °F 57% 30.10 in 10.0 mi SW 18.4 mph - N/A   Clear
2:53 AM 57.0 °F 39.9 °F 53% 30.08 in 10.0 mi SW 21.9 mph - N/A   Clear
3:53 AM 59.0 °F 39.9 °F 49% 30.05 in 10.0 mi SW 27.6 mph 36.8 mph N/A   Clear
4:53 AM 59.0 °F 39.9 °F 49% 30.02 in 10.0 mi SW 32.2 mph 43.7 mph N/A   Clear
5:53 AM 60.1 °F 39.9 °F 47% 30.01 in 10.0 mi SSW 25.3 mph 39.1 mph N/A   Clear
6:53 AM 60.1 °F 39.9 °F 47% 29.97 in 10.0 mi SSW 32.2 mph 43.7 mph N/A   Clear
7:53 AM 60.1 °F 41.0 °F 49% 29.99 in 10.0 mi SSW 27.6 mph - N/A   Clear
8:53 AM 62.1 °F 41.0 °F 46% 29.97 in 10.0 mi SW 31.1 mph 41.4 mph N/A   Clear
9:53 AM 64.9 °F 37.9 °F 37% 29.96 in 10.0 mi WSW 25.3 mph 41.4 mph N/A   Clear
10:53 AM 66.9 °F 37.0 °F 33% 29.96 in 10.0 mi WSW 21.9 mph 33.4 mph N/A   Clear
11:53 AM 68.0 °F 36.0 °F 31% 29.96 in 10.0 mi WSW 18.4 mph 24.2 mph N/A   Clear
12:53 PM 68.0 °F 37.0 °F 32% 29.96 in 10.0 mi WSW 17.3 mph 33.4 mph N/A   Clear
1:53 PM 68.0 °F 33.1 °F 27% 29.98 in 10.0 mi West 13.8 mph 28.8 mph N/A   Scattered Clouds
2:53 PM 66.0 °F 33.1 °F 29% 29.99 in 10.0 mi WNW 19.6 mph - N/A   Clear
3:53 PM 63.0 °F 33.1 °F 33% 30.03 in 10.0 mi WNW 10.4 mph - N/A   Clear
4:53 PM 57.9 °F 33.1 °F 39% 30.04 in 10.0 mi West 11.5 mph - N/A   Clear
5:53 PM 57.0 °F 32.0 °F 39% 30.08 in 10.0 mi WNW 10.4 mph - N/A   Clear
6:53 PM 51.1 °F 30.9 °F 46% 30.12 in 10.0 mi West 11.5 mph - N/A   Clear
7:53 PM 48.0 °F 28.9 °F 48% 30.14 in 10.0 mi West 8.1 mph - N/A   Clear
8:53 PM 50.0 °F 33.1 °F 52% 30.13 in 10.0 mi West 11.5 mph - N/A   Clear
9:53 PM 46.9 °F 35.1 °F 63% 30.13 in 10.0 mi SW 11.5 mph - N/A   Clear
10:53 PM 50.0 °F 35.1 °F 57% 30.12 in 10.0 mi WSW 12.7 mph - N/A   Clear
11:53 PM 46.9 °F 34.0 °F 61% 30.14 in 10.0 mi WSW 11.5 mph - N/A   Clear